Weather in Penza

Russia / Republic of Bashkortostan     54°26′45″N   55°19′01″E
temp.,
°C
wind,
m/s
gust,
m/s
humid.,
%
clouds,
%
prec.,
mm/h
press.,
hPa
HPBL,
m
2 july, sat
sat223:00+13ne228428 1.1 101329
02:00+11ne22845 0.0 101318
05:00+11nne22885 0.0 101320
08:00+15ne22805 0.0 1013174
11:00+19ne23685 0.0 1013592
14:00+21ne33608 0.3 10121301
17:00+21ne346219 1.3 10121276
20:00+18nne46805 0.5 1012172
3 july, sun
sun323:00+14nne22850 0.6 101120
02:00+13ne34900 0.0 101149
05:00+11ne33903 0.0 101129
08:00+15ne22795 0.0 1010161
11:00+20ne33683 0.0 1009643
14:00+21ne33633 1.6 1009989
17:00+22nne45595 1.7 10071500
20:00+18n59802 0.6 1007312
4 july, mon
mon423:00+14n489151 0.9 1007137
02:00+13n5109468 0.0 1006226
05:00+11n5119719 0.1 1005272
08:00+13nne7119586 0.1 1006483
11:00+16nne7983100 0.5 1007924
14:00+15ne7108299 0.2 1007908
17:00+17ne797310 1.2 10081180
20:00+15ne478044 1.1 1009286
5 july, tue
tue523:00+11n359010 1.3 101065
02:00+9n36945 0.0 1011102
05:00+8n36955 0.0 1013112
08:00+11nne57880 0.0 1013337
11:00+15nne567261 0.1 10141016
14:00+16ne556397 0.7 10141582
17:00+17nne565963 0.9 10141411
20:00+15nne37755 0.0 1015327
6 july, wed
wed623:00+11n2283100 0.0 101621
02:00+10nne2278100 0.0 101724
05:00+9nne227944 0.0 101821
08:00+13nne23725 0.0 1019195
11:00+17n2263100 0.0 1018527
14:00+20nw23537 0.0 10191139
17:00+21nw45585 0.0 10181417
20:00+19wnw36765 0.0 1018176